Regional Weather Roundup
Issued by NWS Northern Indiana

Home | Current Version | Previous Version | Text Only | Print | Product List | Glossary Off
Versions: 1 2 3 4 5 6 7 8 9 10 11 12 13 14 15 16 17 18 19 20 21 22 23 24 25 26 27 28 29 30 31 32 33 34 35 36 37 38 39 40 41 42 43 44 45 46 47 48 49 50

000
ASUS43 KIWX 270710
RWRIWX

KIWX WEATHER ROUNDUP
NATIONAL WEATHER SERVICE NORTHERN INDIANA
300 AM EDT SAT AUG 27 2016

NOTE: "FAIR" INDICATES FEW OR NO CLOUDS BELOW 12,000 FEET WITH NO
SIGNIFICANT WEATHER AND/OR OBSTRUCTIONS TO VISIBILITY.

* THESE STATIONS ARE NOT UNDER NWS QUALITY CONTROL. THEY ALSO MAY NOT
  REPORT WEATHER SUCH AS PRECIPITATION OR FOG.

INZ001>027-270800-
NORTHERN INDIANA

CITY           SKY/WX    TMP DP  RH WIND       PRES   REMARKS
GARY*          CLOUDY    73  67  81 NE5       30.11S
VALPARAISO     CLOUDY    68  65  90 NE5       30.11F
MICHIGAN CITY* CLOUDY    68  64  88 CALM      30.11F
LAPORTE*       PTCLDY    70  70 100 E3        30.12F
KNOX*          CLOUDY    68  54  60 CALM      30.10F
SOUTH BEND     LGT RAIN  70  64  81 E5        30.13S
GOSHEN         MOCLDY    70  65  84 CALM      30.12S
MONTICELLO*    PTCLDY    71  67  88 CALM      30.10S
LOGANSPORT*    CLOUDY    70  68  94 CALM      30.11S
ROCHESTER*     PTCLDY    72  70  94 CALM      30.11F
WARSAW*        CLOUDY    70  70 100 CALM      30.12S
ANGOLA*        PTCLDY    70  63  78 CALM      30.14S
FORT WAYNE     MOCLDY    72  64  76 E5        30.13S
HUNTINGTON*    CLOUDY    70  67  92 CALM      30.12S
PERU/GRISSOM   PTCLDY    72  71  98 E5        30.10R
MARION*        CLOUDY    70  69  95 NE5       30.12S

$$
INZ028>050-270800-
CENTRAL INDIANA

CITY           SKY/WX    TMP DP  RH WIND       PRES   REMARKS
LAFAYETTE      CLOUDY    71  69  93 CALM      30.08F
KOKOMO*        MOCLDY    70  70 100 E5        30.11R
MUNCIE*        PTCLDY    72  70  93 SE5       30.11F
INDIANAPOLIS   CLOUDY    72  69  90 SE7       30.09S

$$
MIZ043>046-050>051-056>058-064>065-071>073-077>080-270800-
SOUTHWEST LOWER MICHIGAN

CITY           SKY/WX    TMP DP  RH WIND       PRES   REMARKS
BATTLE CREEK   MOCLDY    66  61  84 E5        30.15S
BENTON HARBOR  CLOUDY    68  60  75 E7        30.12R
COLDWATER*     CLOUDY    69  67  94 E5        30.14S
HILLSDALE*     CLOUDY    66  64  92 CALM      30.16R
HOLLAND        CLOUDY    65  59  81 NE5       30.15S
GRAND RAPIDS   CLOUDY    63  58  83 NE5       30.15S
KALAMAZOO      MOCLDY    68  60  75 CALM      30.15R
STURGIS*       CLOUDY    69  66  88 E3        30.14S
THREE RIVERS*  FAIR      70  64  83 NE3       30.14F

$$
OHZ001>008-015>018-024>025-270800-
NORTHWEST OHIO

CITY           SKY/WX    TMP DP  RH WIND       PRES   REMARKS
WAUSEON*       CLOUDY    68  66  94 CALM      30.14S
DEFIANCE       CLOUDY    72  65  78 CALM      30.14S
FINDLAY        CLOUDY    73  59  61 E5        30.13S
TOLEDO EXPRESS PTCLDY    66  66 100 CALM      30.14R
TOLEDO METCALF CLEAR     70  65  84 CALM      30.15R
LIMA           MOCLDY    69  66  90 E5        30.14S

$$
AND FOR LAKE MICHIGAN COASTAL AND OPEN LAKE BUOY OBSERVATIONS

STATION/POSITION TEMP    WIND        PRES    VSBY  WAVE
                 AIR SEA DIR/SP/G                  HT/PER
                 (F)     (DEG/KT/KT) (MB)    (MI)  (FT/S)
CALUMET HARBOR    71      50/  7/  9 1019.3F
MICHIGAN CITY     70      50/  5/  6   N/A
BURNS HARBOR      71      70/  4/ 11 1020.3R
SAINT JOSEPH      69      20/  2/  4 1020.7S
SOUTH LAKE BUOY   72 75   90/ 14/ 16 1019.0F         1/ 3
4 MI NW BRIDGMAN  70 76   60/  8/ 10 1019.6R         1/ 3
MICHIGAN CITY     72 74   70/ 10/ 12   N/A           2/ 4

$$
&&



USA.gov is the U.S. government's official web portal to all federal, state and local government web resources and services.